TimeCST,TemperatureF,Dew PointF,Humidity,Sea Level PressureIn,VisibilityMPH,Wind Direction,Wind SpeedMPH,Gust SpeedMPH,PrecipitationIn,Events,Conditions,WindDirDegrees,DateUTC
12:11 AM,15.8,10.4,79,30.31,10.0,SSE,10.4,-,N/A,,Clear,160,2014-03-06 06:11:00
12:31 AM,15.8,8.6,73,30.31,10.0,SSE,9.2,-,N/A,,Clear,160,2014-03-06 06:31:00
12:50 AM,12.2,8.6,85,30.31,10.0,SSE,5.8,-,N/A,,Clear,160,2014-03-06 06:50:00
1:11 AM,12.2,8.6,85,30.31,10.0,SSE,9.2,-,N/A,,Clear,150,2014-03-06 07:11:00
1:31 AM,12.2,8.6,85,30.30,10.0,SSE,10.4,-,N/A,,Scattered Clouds,150,2014-03-06 07:31:00
1:51 AM,14.0,8.6,79,30.28,10.0,SSE,12.7,-,N/A,,Overcast,150,2014-03-06 07:51:00
2:11 AM,15.8,8.6,73,30.27,10.0,SSE,11.5,17.3,N/A,,Overcast,150,2014-03-06 08:11:00
2:31 AM,15.8,10.4,79,30.27,10.0,SSE,11.5,16.1,N/A,,Overcast,150,2014-03-06 08:31:00
2:51 AM,15.8,10.4,79,30.26,10.0,SSE,12.7,-,N/A,,Overcast,150,2014-03-06 08:51:00
3:11 AM,15.8,10.4,79,30.25,10.0,SSE,13.8,-,N/A,,Overcast,150,2014-03-06 09:11:00
3:31 AM,15.8,10.4,79,30.25,10.0,SSE,13.8,-,N/A,,Overcast,150,2014-03-06 09:31:00
3:51 AM,15.8,10.4,79,30.25,10.0,SSE,9.2,-,N/A,,Overcast,160,2014-03-06 09:51:00
4:11 AM,15.8,10.4,79,30.24,10.0,SSE,12.7,-,N/A,,Overcast,160,2014-03-06 10:11:00
4:31 AM,15.8,10.4,79,30.24,10.0,SSE,10.4,16.1,N/A,,Overcast,160,2014-03-06 10:31:00
4:51 AM,15.8,10.4,79,30.24,10.0,SSE,10.4,-,N/A,,Overcast,160,2014-03-06 10:51:00
5:11 AM,15.8,10.4,79,30.24,10.0,SSE,10.4,-,N/A,,Overcast,160,2014-03-06 11:11:00
5:31 AM,15.8,12.2,86,30.23,10.0,SSE,11.5,-,N/A,,Overcast,160,2014-03-06 11:31:00
5:51 AM,15.8,10.4,79,30.22,10.0,SSE,10.4,-,N/A,,Mostly Cloudy,150,2014-03-06 11:51:00
6:11 AM,15.8,10.4,79,30.21,10.0,SSE,11.5,-,N/A,,Scattered Clouds,150,2014-03-06 12:11:00
6:31 AM,15.8,10.4,79,30.20,10.0,SSE,10.4,-,N/A,,Clear,160,2014-03-06 12:31:00
6:51 AM,15.8,10.4,79,30.20,10.0,South,11.5,-,N/A,,Clear,170,2014-03-06 12:51:00
7:11 AM,15.8,10.4,79,30.18,10.0,SSE,12.7,-,N/A,,Clear,160,2014-03-06 13:11:00
7:31 AM,15.8,10.4,79,30.17,10.0,SSE,12.7,-,N/A,,Clear,160,2014-03-06 13:31:00
7:51 AM,15.8,12.2,86,30.17,10.0,SSE,13.8,-,N/A,,Clear,160,2014-03-06 13:51:00
8:11 AM,15.8,12.2,86,30.16,10.0,SSE,18.4,24.2,N/A,,Clear,160,2014-03-06 14:11:00
8:31 AM,15.8,12.2,86,30.16,10.0,South,13.8,21.9,N/A,,Clear,170,2014-03-06 14:31:00
8:51 AM,17.6,12.2,79,30.15,10.0,South,15.0,21.9,N/A,,Clear,170,2014-03-06 14:51:00
9:11 AM,17.6,12.2,79,30.15,10.0,South,12.7,16.1,N/A,,Clear,170,2014-03-06 15:11:00
9:31 AM,17.6,14.0,86,30.13,10.0,SSE,15.0,21.9,N/A,,Clear,160,2014-03-06 15:31:00
9:51 AM,17.6,14.0,86,30.14,10.0,South,16.1,24.2,N/A,,Scattered Clouds,180,2014-03-06 15:51:00
10:11 AM,19.4,15.8,86,30.12,10.0,South,15.0,23.0,N/A,,Scattered Clouds,170,2014-03-06 16:11:00
10:31 AM,19.4,15.8,86,30.12,7.0,South,15.0,21.9,N/A,,Scattered Clouds,170,2014-03-06 16:31:00
10:51 AM,19.4,15.8,86,30.12,10.0,SSE,11.5,19.6,N/A,,Clear,160,2014-03-06 16:51:00
11:11 AM,19.4,15.8,86,30.12,10.0,South,11.5,16.1,N/A,,Clear,170,2014-03-06 17:11:00
11:31 AM,19.4,15.8,86,30.11,7.0,South,11.5,-,N/A,,Clear,170,2014-03-06 17:31:00
11:51 AM,19.4,15.8,86,30.10,7.0,SSE,16.1,-,N/A,,Clear,160,2014-03-06 17:51:00
12:11 PM,19.4,17.6,93,30.08,7.0,SSE,18.4,-,N/A,,Clear,160,2014-03-06 18:11:00
12:31 PM,19.4,17.6,93,30.06,7.0,SSE,19.6,-,N/A,,Clear,160,2014-03-06 18:31:00
12:51 PM,21.2,17.6,86,30.05,5.0,SSE,17.3,25.3,N/A,,Clear,160,2014-03-06 18:51:00
1:10 PM,21.2,17.6,86,30.04,5.0,SSE,18.4,23.0,N/A,,Clear,160,2014-03-06 19:10:00
1:31 PM,21.2,17.6,86,30.03,5.0,SSE,15.0,23.0,N/A,,Clear,160,2014-03-06 19:31:00
1:51 PM,21.2,17.6,86,30.01,4.0,South,18.4,23.0,N/A,,Scattered Clouds,170,2014-03-06 19:51:00
2:10 PM,21.2,19.4,93,30.00,4.0,SSE,15.0,27.6,N/A,,Scattered Clouds,160,2014-03-06 20:10:00
2:31 PM,21.2,19.4,93,29.99,4.0,SSE,18.4,27.6,N/A,,Scattered Clouds,160,2014-03-06 20:31:00
2:51 PM,21.2,19.4,93,29.98,3.0,SSE,21.9,27.6,N/A,,Scattered Clouds,160,2014-03-06 20:51:00
3:10 PM,21.2,19.4,93,29.98,4.0,South,15.0,27.6,N/A,,Scattered Clouds,170,2014-03-06 21:10:00
3:31 PM,21.2,19.4,93,29.96,3.0,SSE,19.6,25.3,N/A,,Scattered Clouds,160,2014-03-06 21:31:00
3:51 PM,21.2,19.4,93,29.95,4.0,SSE,17.3,21.9,N/A,,Scattered Clouds,160,2014-03-06 21:51:00
4:10 PM,21.2,19.4,93,29.94,4.0,SSE,20.7,25.3,N/A,,Clear,150,2014-03-06 22:10:00
4:31 PM,21.2,19.4,93,29.91,4.0,SSE,21.9,28.8,N/A,,Clear,160,2014-03-06 22:31:00
4:51 PM,21.2,19.4,93,29.90,4.0,SSE,21.9,28.8,N/A,,Clear,160,2014-03-06 22:51:00
5:11 PM,21.2,19.4,93,29.88,4.0,SSE,21.9,27.6,N/A,,Clear,160,2014-03-06 23:11:00
5:31 PM,21.2,19.4,93,29.88,4.0,SSE,21.9,28.8,N/A,,Clear,160,2014-03-06 23:31:00
5:51 PM,21.2,19.4,93,29.88,4.0,SSE,20.7,29.9,N/A,,Clear,160,2014-03-06 23:51:00
6:11 PM,21.2,19.4,93,29.87,5.0,South,18.4,25.3,N/A,,Clear,170,2014-03-07 00:11:00
6:31 PM,21.2,19.4,93,29.88,7.0,SSE,17.3,24.2,N/A,,Clear,160,2014-03-07 00:31:00
6:51 PM,21.2,19.4,93,29.88,7.0,SSE,18.4,24.2,N/A,,Clear,160,2014-03-07 00:51:00
7:11 PM,21.2,19.4,93,29.88,7.0,SSE,13.8,20.7,N/A,,Clear,160,2014-03-07 01:11:00
7:31 PM,21.2,19.4,93,29.89,7.0,SSE,13.8,-,N/A,,Clear,160,2014-03-07 01:31:00
7:51 PM,21.2,19.4,93,29.89,7.0,SSE,10.4,-,N/A,,Clear,160,2014-03-07 01:51:00
8:11 PM,21.2,19.4,93,29.87,7.0,South,13.8,17.3,N/A,,Clear,170,2014-03-07 02:11:00
8:31 PM,21.2,19.4,93,29.87,5.0,South,9.2,-,N/A,,Clear,170,2014-03-07 02:31:00
8:51 PM,21.2,19.4,93,29.87,5.0,SSE,8.1,-,N/A,,Clear,160,2014-03-07 02:51:00
9:11 PM,21.2,19.4,93,29.87,5.0,South,10.4,-,N/A,,Clear,170,2014-03-07 03:11:00
9:31 PM,21.2,19.4,93,29.86,5.0,SSE,10.4,-,N/A,,Clear,160,2014-03-07 03:31:00
9:51 PM,21.2,19.4,93,29.85,5.0,South,10.4,-,N/A,,Clear,170,2014-03-07 03:51:00
10:11 PM,21.2,19.4,93,29.84,5.0,South,11.5,-,N/A,,Clear,170,2014-03-07 04:11:00
10:30 PM,23.0,21.2,93,29.84,5.0,South,12.7,-,N/A,,Clear,170,2014-03-07 04:30:00
10:51 PM,24.8,21.2,86,29.83,5.0,South,10.4,-,N/A,,Clear,170,2014-03-07 04:51:00
11:10 PM,23.0,19.4,86,29.83,5.0,South,8.1,-,N/A,,Clear,170,2014-03-07 05:10:00
11:31 PM,23.0,19.4,86,29.83,5.0,SSE,9.2,-,N/A,,Clear,160,2014-03-07 05:31:00
11:51 PM,21.2,19.4,93,29.82,5.0,SSE,9.2,-,N/A,,Clear,160,2014-03-07 05:51:00